CAPE
0 0 0 0 0 0 0 0 0 0 0 0 0 0 0 0 0 0 0 0 5 11 24 0 17 79 96 148 199 127 113 157 212 182 84 449 833 1345 1255 1346 1378 1504 1715 1706 1980 2176 2307 2456 2516 2445 2526 2583 2567 2408 2292 2316 2372 2533 2527 2549 2469 2303 2136 2179 2171 2147 2116 2089 2092 2087 1934 1912 1840 1718 1784 1732 1787 1574 1570 1544 1516 1481 1519 1571 1142 1424 1437 1334 1234 1162 1106 845 694 589 555 421 223
0 0 0 0 0 0 0 0 0 0 0 0 0 0 0 0 0 0 5 29 5 0 0 0 107 103 57 62 146 129 209 274 351 378 543 712 906 1038 1278 1443 1340 1585 1674 1676 1748 1881 2155 2426 2471 2488 2464 2548 2625 2482 2380 2302 2341 2535 2528 2542 2431 2132 2119 2158 2165 2176 2126 2071 2099 2070 2032 1922 1929 1859 1727 1653 1721 1793 1662 1708 1572 1633 1598 1522 1322 1100 1476 1312 1188 1135 1109 990 847 635 568 476 268
0 0 0 0 0 0 0 0 0 0 0 0 0 0 0 0 0 82 53 15 0 0 0 0 66 13 68 98 152 150 197 346 424 588 728 800 951 925 1074 1526 1749 1693 1628 1628 1591 1733 2029 2344 2442 2440 2402 2560 2652 2561 2395 2295 2441 2482 2548 2509 2389 2126 2109 2266 2223 2184 2157 2142 2164 2168 2050 1983 1958 1932 1861 1763 1878 1749 1659 1742 1718 1521 1321 1484 1382 1112 1211 1307 1112 1029 1057 960 919 706 556 432 286
0 0 0 0 0 0 0 0 0 0 0 0 0 0 0 0 2 69 50 0 0 0 0 0 0 0 9 28 32 158 146 281 530 607 787 1048 1281 1140 1314 1532 1831 1644 1667 1584 1526 1674 1819 2201 2390 2398 2468 2572 2656 2601 2541 2382 2464 2387 2505 2170 2467 2334 2320 2384 2403 2336 2187 2175 2205 2180 2043 1982 1973 1969 1867 1847 1897 1823 1711 1741 1778 1701 1559 1128 1407 1086 1394 1226 1081 1083 1010 970 918 682 538 398 239
0 0 0 0 0 0 0 0 0 0 0 0 0 0 17 6 1 18 0 0 0 0 0 0 0 0 0 0 0 8 209 509 966 986 1002 1104 1246 1316 1446 1494 1598 1718 1664 1519 1497 1621 1864 2183 2331 2391 2552 2678 2675 2670 2566 2434 2467 2655 2632 2476 2439 2378 2352 2406 2285 2219 2292 2278 2258 2204 2067 1925 1996 1922 1990 1886 1927 1868 1906 1796 1751 1713 1655 1673 1736 1571 1554 1508 1104 1008 940 895 958 743 595 494 416
0 0 0 0 0 0 0 0 0 0 0 0 0 0 0 4 51 54 16 0 0 0 0 0 0 0 0 0 0 0 6 575 686 929 1090 1077 1198 1307 1416 1425 1491 1560 1649 1578 1560 1671 1819 2012 2171 2376 2496 2623 2634 2656 2576 2372 2520 2650 2532 2510 2434 2342 2436 2438 2342 2299 2308 2239 2161 2144 2091 1939 1898 1966 1832 1933 2152 2075 2034 1984 1798 1813 1766 1691 1650 1533 1311 1439 1028 1017 1052 824 1087 920 843 727 630
0 0 0 0 0 0 0 0 0 0 0 0 0 0 0 0 0 9 0 0 0 0 0 0 0 0 0 0 0 0 31 379 666 939 1096 1124 1174 1329 1402 1393 1369 1421 1484 1525 1545 1562 1651 1800 1967 2207 2469 2650 2671 2662 2633 2545 2511 2622 2571 2374 2372 2362 2355 2342 2434 2368 2181 2190 2107 2047 1973 1836 1718 1817 1844 1788 2129 2060 2109 2002 1920 1956 1858 1705 1443 1200 1145 1094 1118 1153 1154 1120 1183 1105 932 793 697
0 0 0 0 0 0 0 0 0 0 0 0 0 0 37 0 0 0 0 0 0 0 0 0 0 0 0 0 2 52 194 583 759 1083 1170 1173 1254 1427 1480 1386 1389 1361 1373 1435 1502 1567 1694 1619 1768 1928 2150 2485 2619 2529 2617 2610 2550 2542 2482 2345 2248 2338 2355 2300 2371 2392 2345 2255 2016 1951 1927 1860 1771 1826 1715 1668 1474 2026 2060 2118 2008 1987 1715 1358 1349 1121 1187 1243 1168 1158 1240 1232 1136 1089 1006 890 804
0 0 0 0 0 0 0 0 0 0 0 0 0 0 13 10 0 0 0 0 0 0 0 0 0 0 0 0 0 41 231 389 741 1151 1242 1338 1324 1456 1465 1442 1423 1459 1536 1508 1519 1519 1439 1499 1622 1816 2025 2153 2394 2674 2633 2589 2482 2531 2486 2362 2328 2384 2352 2406 2352 2430 2437 2355 2222 2039 2092 2130 1995 2076 1768 1703 981 2122 2044 2001 2110 1975 1843 1414 1328 1319 1412 1288 1184 1251 1237 1152 1138 1054 955 885 812
0 0 0 0 0 0 0 0 0 0 0 0 0 0 0 0 0 0 0 0 0 0 0 0 0 0 0 0 0 5 258 285 325 306 1007 1079 1261 1444 1487 1425 1360 1379 1438 1411 1430 1484 1358 1531 1432 1620 1779 1978 2019 2037 2188 2442 2521 2543 2516 2496 2403 2430 2379 2416 2403 2405 2356 2338 2324 2336 2367 2416 2397 2274 2011 1836 2058 2106 2080 2040 2229 2149 1988 1572 1428 1449 1402 1388 1312 1234 1218 1170 1096 1071 924 845 742
0 0 0 0 0 0 0 0 0 0 0 0 0 0 0 0 0 0 0 0 0 0 0 0 0 0 0 0 0 5 36 65 237 260 273 684 1201 1273 1339 1361 1310 1323 1337 1278 1354 1460 1397 1313 1550 1435 1577 1736 1807 1997 2060 2173 2376 2532 2460 2366 2376 2404 2410 2416 2413 2398 2346 2389 2416 2234 2368 2456 2468 2344 2147 1930 1850 1701 2183 2279 2181 1887 1795 1376 1564 1500 1549 1550 1395 1215 1065 1143 1057 1117 927 783 656
0 0 0 0 0 0 0 0 0 0 0 0 0 0 0 0 0 0 0 0 0 0 0 0 0 0 0 0 0 0 0 0 0 3 348 504 947 1173 1195 1191 1256 1346 1330 1228 1313 1468 1457 1255 1216 1496 1466 1632 1838 2022 2105 2121 2331 2521 2502 2465 2391 2345 2396 2391 2400 2413 2446 2370 2399 2414 2333 2459 2436 2386 2351 2362 2423 2329 2292 2221 2075 1864 1886 1413 1799 1757 1635 1559 1393 1246 1145 1117 1079 1080 997 762 674
0 0 0 0 0 0 0 0 0 0 0 0 0 0 0 0 0 0 0 0 0 0 0 0 0 0 0 0 0 0 0 0 0 0 0 468 647 988 1220 1307 1224 1226 1413 1345 1216 1309 1360 1205 1116 1025 1328 1493 1586 1809 1950 2111 2203 2454 2511 2477 2442 2355 2435 2401 2451 2459 2396 2463 2388 2378 2355 2415 2398 2424 2405 2417 2335 2216 2065 2173 2036 1746 1706 1403 1726 1831 1661 1530 1408 1200 1121 1029 1107 1083 980 879 816
0 0 0 0 0 0 0 0 0 0 0 0 0 0 0 0 0 0 0 0 0 0 0 0 0 0 0 0 0 0 0 0 0 0 0 0 613 919 1264 1378 1292 1207 1275 1394 1323 1209 1263 1250 1166 1086 1086 1163 1391 1538 1720 1958 2159 2376 2486 2512 2489 2400 2402 2410 2444 2390 2454 2495 2453 2389 2402 2423 2425 2476 2399 2303 2288 2193 2077 2072 2089 1881 1697 1483 1578 1764 1603 1537 1422 1229 1108 983 981 1039 949 884 726
0 0 0 0 0 0 0 0 0 0 0 0 0 0 0 0 0 0 0 0 0 0 0 0 0 0 0 0 0 0 0 0 0 0 0 0 0 247 948 1345 1339 1184 1171 1335 1446 1332 1236 1276 1187 1150 1287 1050 1123 1288 1538 1766 1981 2266 2410 2446 2466 2433 2343 2361 2371 2384 2428 2332 2460 2415 2370 2421 2468 2504 2361 2234 2106 1942 2054 2078 2033 1952 1637 1371 1474 1672 1572 1516 1425 1260 1125 1065 1093 1089 928 845 671
0 0 0 0 0 0 0 0 0 0 0 0 0 0 0 0 0 0 0 0 0 0 0 0 0 0 0 0 0 0 0 0 0 0 0 0 0 0 0 426 606 1161 1359 1302 1331 1300 1229 1300 1250 1308 1444 1574 1532 1340 1214 1618 1823 2049 2305 2388 2377 2349 2353 2306 2271 2375 2214 2516 2462 2296 2302 2231 2413 2440 2278 2220 2066 1893 1862 1732 1960 2003 1734 1510 1668 1612 1617 1514 1406 1291 1221 1226 1116 1071 958 811 679
0 0 0 0 0 0 0 0 0 0 0 0 0 0 0 0 0 0 0 0 0 0 0 0 0 0 0 0 0 0 0 0 0 0 0 0 0 0 0 0 0 0 98 1449 1498 1403 1341 1311 1386 1441 1344 1548 1654 1626 1388 1304 1719 1941 2153 2360 2339 2392 2309 2298 2350 2330 2292 2162 2254 2278 2104 2105 2106 2195 2056 1969 2105 1761 1618 1799 2025 2049 1756 1715 1631 1657 1606 1510 1403 1306 1253 1281 1187 1030 864 749 689
0 0 0 0 0 0 0 0 0 0 0 0 0 0 0 0 0 0 0 0 0 0 0 0 0 0 0 0 0 0 0 0 0 0 0 0 0 0 0 0 0 0 0 126 417 1379 1633 1599 1522 1312 1304 1517 1484 1443 1416 1604 1654 1755 1849 2023 2132 2149 2287 2296 2196 2134 2165 2238 2368 2165 1873 1944 1967 2005 2003 2100 1647 1780 1916 1866 2021 2014 1850 1750 1609 1576 1542 1547 1395 1314 1289 1281 1133 1020 923 687 657
0 0 0 0 0 0 0 0 0 0 0 0 0 0 0 0 0 0 0 0 0 0 0 0 0 0 0 0 0 0 0 0 0 0 0 0 0 0 0 0 0 0 0 0 0 0 1528 1524 1314 1230 1428 1489 1378 1336 1423 1563 1630 1743 1735 1782 1892 2189 2182 2217 2183 2333 2137 2160 2134 2091 1955 1861 1783 1869 1927 1753 1663 1862 1855 1948 2011 2014 1995 1792 1568 1537 1513 1479 1376 1365 1360 1275 1116 1062 899 451 312
0 0 0 0 0 0 0 0 0 0 0 0 0 0 0 0 0 0 0 0 0 0 0 0 0 0 0 0 0 0 0 0 0 0 0 0 0 0 0 0 0 0 0 0 0 0 0 831 1359 1457 1564 1515 1335 1426 1425 1512 1523 1694 1666 1752 1708 1670 1600 1784 2169 2020 1858 1775 1909 2048 2007 1783 1527 1281 1898 1288 1718 1509 1853 1884 2029 1966 1932 1873 1562 1371 1252 1326 1321 1367 1366 1249 1067 1045 815 385 146
0 0 0 0 0 0 0 0 0 0 0 0 0 0 0 0 0 0 0 0 0 0 0 0 0 0 0 0 0 0 0 0 2 0 0 0 0 0 0 0 0 0 0 0 0 0 0 0 305 1432 1561 1376 1534 1767 1557 1604 1587 1592 1528 1678 1573 1509 1256 1431 1500 1412 1172 922 1445 1692 1792 1467 1120 1019 1016 975 953 1104 1505 1536 1463 1618 1659 1637 1512 1152 962 971 919 818 754 615 506 554 568 88 0
0 0 0 0 0 0 0 0 0 0 0 0 0 0 0 0 0 0 0 0 0 0 0 0 0 0 0 0 0 0 0 0 0 0 0 0 0 0 0 0 0 0 0 0 0 0 0 0 0 0 1130 1213 1512 1593 1586 1680 1562 1463 1416 1428 1377 1304 1226 1367 1366 1321 1252 1178 1046 1226 979 949 869 820 791 729 691 871 1159 1115 1188 1467 1387 1385 1250 1144 829 789 352 91 37 10 2 0 0 0 0
0 0 0 0 0 0 0 0 0 0 0 0 0 0 0 0 0 0 0 0 0 0 0 0 0 0 0 0 0 0 0 0 0 0 0 0 0 0 0 0 0 0 0 0 0 0 0 0 0 0 0 346 1490 1469 1590 1443 1479 1381 1366 1336 1399 1216 1269 1325 1282 1266 1265 1108 1020 878 842 792 812 724 670 874 860 778 941 1007 1027 1124 1281 1188 1072 1026 837 714 318 34 0 0 0 0 0 0 0
0 0 0 0 0 0 0 0 0 0 0 0 0 0 0 0 0 0 0 0 0 0 0 0 0 0 0 1 0 0 0 0 0 0 0 0 0 0 0 0 0 0 0 0 0 0 0 0 0 0 0 0 1290 1708 1538 1297 1302 1381 1446 1507 1401 1286 1435 1316 1332 1210 1240 1043 1163 1056 834 654 698 671 631 627 681 697 639 838 982 988 1078 878 900 772 694 692 333 75 0 0 0 0 0 0 0
0 0 0 0 0 0 0 0 0 0 0 0 0 0 0 0 0 0 0 0 0 0 0 0 0 0 0 0 0 0 0 0 0 0 0 0 0 0 0 0 0 0 0 0 0 0 0 0 0 0 0 0 922 1657 1410 1304 1305 1400 1324 1325 1306 1412 1268 1203 1181 1227 1167 1004 879 1094 1055 1057 772 694 515 380 625 572 678 762 838 730 669 622 474 593 422 511 304 60 0 0 0 0 0 0 0
0 0 0 0 0 0 0 0 0 0 0 0 0 0 0 0 0 0 0 0 0 0 0 0 0 0 0 0 0 0 0 0 0 0 0 0 0 0 0 0 0 0 0 0 0 0 0 0 0 0 0 0 0 759 1314 1350 1431 1353 1219 1103 1374 1578 1224 1130 945 992 884 845 925 1043 1011 1012 924 929 533 387 600 691 619 600 643 762 641 544 400 236 403 162 128 20 73 0 0 0 0 0 0
0 0 0 0 0 0 0 0 0 0 0 0 0 0 0 0 0 0 0 0 0 0 0 0 0 0 0 0 0 0 0 0 0 0 0 0 0 0 0 0 0 0 0 0 0 0 0 0 0 0 0 0 0 0 0 0 1009 1116 1237 1154 1310 883 1008 1037 928 1057 1065 1072 948 926 1013 1157 941 817 863 621 662 625 585 650 532 680 755 634 466 308 589 716 240 161 74 36 0 0 31 88 0
0 0 0 0 0 0 0 0 0 0 0 0 0 0 0 0 0 0 0 0 0 0 0 0 0 0 0 0 0 0 0 0 0 0 0 0 0 0 0 0 0 0 0 0 0 0 0 0 0 0 0 0 0 0 0 0 0 88 844 1228 1109 799 971 887 762 1036 1157 1082 845 880 924 986 899 838 810 772 726 683 681 653 656 602 766 793 526 322 592 538 231 328 238 251 142 110 219 244 6
0 0 0 0 0 0 0 0 0 0 0 0 0 0 0 0 0 0 0 0 0 0 0 0 0 0 0 0 0 0 0 0 0 0 0 0 0 0 0 0 0 0 0 0 0 0 0 0 0 0 0 0 0 0 0 0 0 0 0 0 0 0 1029 621 1013 1029 1035 792 946 743 1058 816 959 922 845 865 1016 749 807 761 877 725 714 810 632 666 609 352 329 303 221 235 126 142 222 238 1
0 0 0 0 0 0 0 0 0 0 0 0 0 0 0 0 0 0 0 0 0 0 0 0 0 0 0 0 0 0 0 0 0 0 0 0 0 0 0 0 0 0 0 0 0 0 0 0 0 0 0 0 0 0 0 0 0 0 0 0 0 0 0 254 556 570 724 964 1142 804 954 772 736 894 862 879 951 1095 975 924 819 708 768 802 723 607 326 335 322 272 217 342 483 291 309 256 190
0 0 0 0 0 0 0 0 0 0 0 0 0 0 0 0 0 0 0 0 0 0 0 0 0 0 0 0 0 0 0 0 0 0 0 0 0 0 0 0 0 0 0 0 0 0 0 0 0 0 0 0 0 0 0 0 0 0 0 0 0 0 0 0 0 54 401 419 1058 813 559 542 528 578 731 926 891 957 981 936 1007 914 878 730 636 435 414 258 313 274 166 363 310 99 172 117 178
0 0 0 0 0 0 0 0 0 0 0 0 0 0 0 0 0 0 0 0 0 0 0 0 0 0 0 0 0 0 0 0 0 0 0 0 0 0 0 0 0 0 0 0 0 0 0 0 0 0 0 0 0 0 0 0 0 0 0 8 0 0 0 0 0 0 0 0 385 654 475 340 382 369 520 778 823 914 885 1034 942 909 954 785 646 721 520 464 281 365 486 362 112 97 178 242 184
0 0 0 0 0 0 0 0 0 0 0 0 0 0 0 0 0 0 0 0 0 0 0 0 0 0 0 0 0 0 0 0 0 0 0 0 0 0 0 0 0 0 0 0 0 0 0 0 0 0 0 0 0 0 0 0 0 0 0 0 0 0 0 0 0 0 0 0 0 0 0 156 280 559 468 833 638 679 773 982 998 1119 964 980 854 737 739 538 493 616 388 309 270 138 117 70 76
0 0 0 0 0 0 0 0 0 0 0 0 0 0 0 0 0 0 0 0 0 0 0 0 0 0 0 0 0 0 0 0 0 0 0 0 0 0 0 0 0 0 0 0 0 0 0 0 0 0 0 0 0 0 0 0 0 0 0 0 2 0 0 0 0 0 0 0 0 0 0 0 0 0 562 703 847 636 657 804 930 913 895 773 647 572 583 664 517 429 415 282 328 393 456 567 455
0 0 0 0 0 0 0 0 0 0 0 0 0 0 0 0 0 0 0 0 0 0 0 0 0 0 0 0 0 0 0 0 0 0 0 0 0 0 0 0 0 0 0 0 0 0 0 0 0 0 0 0 0 0 0 0 0 0 0 0 0 0 0 0 0 0 0 0 0 0 0 0 0 0 0 440 893 1075 865 898 637 758 850 858 812 775 882 932 915 577 540 510 801 524 245 493 694
0 0 0 0 0 0 0 0 0 0 0 0 0 0 0 0 0 0 0 0 0 0 0 0 0 0 0 0 0 0 0 0 0 0 0 0 0 0 0 0 0 0 0 0 0 0 0 0 0 0 0 0 0 0 0 0 0 0 0 0 0 0 0 0 0 0 0 0 0 0 0 0 0 0 0 0 0 2 294 1008 1172 980 621 706 714 850 994 865 844 736 718 681 780 789 705 523 562
0 0 0 0 0 0 0 0 2 1 0 0 0 0 0 0 0 0 0 0 0 0 0 0 0 0 0 0 0 0 0 0 0 0 0 0 0 0 0 0 0 0 0 0 0 0 0 0 0 0 0 0 0 0 0 0 0 0 0 0 0 0 0 0 0 0 0 0 0 0 0 0 0 0 0 0 0 51 0 0 348 987 858 559 514 419 706 936 844 831 628 696 781 1003 1033 896 597
0 0 0 0 0 0 0 0 0 0 0 0 0 0 0 0 0 0 0 0 0 0 0 0 0 0 0 0 0 0 0 0 0 0 0 0 0 0 0 0 0 0 0 0 0 0 0 0 0 0 0 0 0 0 0 0 0 0 0 0 0 0 0 0 0 0 0 0 0 0 0 0 0 0 0 0 0 0 0 0 0 1 835 576 238 462 649 702 643 786 859 723 654 726 844 950 911
0 0 0 0 0 0 0 0 0 0 0 0 0 0 0 0 0 0 0 0 0 0 0 0 0 0 0 0 0 0 0 0 0 0 0 0 0 0 0 0 0 0 0 0 0 0 0 0 0 0 0 0 0 0 0 0 0 0 0 0 0 0 0 0 0 0 0 0 0 0 0 0 0 0 0 0 0 0 0 0 0 0 16 309 268 116 328 440 516 596 644 665 785 738 780 823 1007
0 0 0 0 0 0 5 0 5 0 0 0 0 0 0 0 0 0 0 0 0 0 0 0 0 0 0 0 0 0 0 0 0 0 2 3 0 0 0 0 0 0 0 0 0 0 0 0 0 0 0 0 0 0 0 0 0 0 0 0 0 0 0 0 0 0 0 0 0 0 0 0 0 0 0 0 0 0 0 0 0 0 0 8 120 108 1 0 311 371 253 467 473 611 736 805 789
0 0 0 0 0 0 0 2 0 0 0 0 0 0 0 0 0 0 0 0 0 0 0 0 0 0 0 0 0 0 0 0 0 0 0 6 3 0 0 0 0 0 0 0 0 0 0 0 0 0 0 0 0 0 0 0 0 0 0 0 0 0 0 0 0 0 0 0 0 0 0 0 0 0 0 0 0 0 0 0 0 0 0 0 0 0 29 5 80 8 242 382 526 580 535 543 588
0 0 0 0 0 0 0 5 0 0 0 0 0 0 0 0 0 0 0 0 0 0 0 0 0 0 0 0 0 0 0 0 0 0 0 4 5 0 0 0 0 0 0 0 0 0 0 0 1 0 0 0 0 0 0 0 0 0 0 0 0 0 0 0 0 0 0 0 0 0 0 0 0 0 0 0 0 0 0 0 0 0 0 0 0 0 0 0 0 179 214 470 594 622 453 356 385
0 0 0 0 0 0 0 0 0 0 0 0 0 0 0 0 0 0 0 0 0 0 0 0 0 0 0 0 0 0 0 0 0 0 0 0 0 0 0 0 0 0 0 0 0 0 0 0 6 0 0 0 0 0 0 0 0 0 0 0 0 0 0 0 0 0 0 0 0 0 0 0 0 0 0 0 0 0 0 0 0 0 0 0 0 0 0 0 0 0 0 5 116 354 520 456 403
0 0 0 0 0 0 0 0 0 0 0 0 0 0 0 0 0 0 0 0 0 0 0 0 0 0 0 0 0 0 0 0 0 0 0 0 0 0 0 0 0 0 0 1 2 0 0 0 8 2 0 0 0 0 0 0 0 5 0 0 0 0 0 0 0 0 0 0 0 0 0 0 0 0 0 0 0 0 0 0 0 0 0 0 0 0 0 0 0 0 0 2 22 49 191 353 282
0 0 0 0 0 0 0 0 0 0 0 0 0 0 0 0 0 0 0 0 0 0 0 0 0 0 0 0 0 0 0 0 0 0 0 0 0 0 0 0 0 0 1 4 2 5 2 0 5 3 0 0 0 0 0 0 0 0 0 0 0 0 0 0 0 0 0 0 0 0 0 0 0 0 0 0 0 0 0 0 0 0 0 0 0 0 0 0 0 0 0 0 0 1 50 264 432
0 0 0 0 0 0 0 0 0 0 0 0 0 0 0 0 0 0 0 0 0 0 0 0 0 0 0 0 0 0 0 0 0 0 0 0 0 0 0 0 0 0 10 12 3 1 1 0 5 7 0 0 0 0 0 0 0 0 0 0 0 0 0 0 0 0 0 0 0 0 0 0 0 0 0 0 0 0 0 0 0 0 0 0 0 0 0 0 0 0 0 0 0 0 0 12 116
0 0 0 0 0 0 0 0 0 0 0 0 0 0 0 0 0 0 0 1 0 5 10 4 0 0 0 0 0 0 0 0 0 0 0 0 0 0 0 0 1 9 13 26 5 0 4 6 10 16 2 0 0 0 0 0 0 0 0 0 0 0 0 0 0 0 0 0 0 0 0 0 0 0 0 0 0 0 0 0 0 0 0 0 0 0 0 0 0 0 0 0 0 0 0 0 1
0 0 0 0 0 0 0 0 0 0 0 0 0 0 0 0 0 0 0 0 9 10 11 12 20 6 0 0 0 0 0 0 0 0 0 0 0 0 0 0 0 22 14 59 48 5 11 17 15 21 9 0 0 0 0 0 0 0 0 0 0 0 0 0 0 0 0 0 0 0 0 0 0 0 0 0 0 0 0 0 0 0 0 0 0 0 0 0 0 0 0 0 0 0 0 0 0
0 0 0 0 0 0 0 0 0 0 0 0 0 0 0 0 0 0 0 0 4 7 12 24 20 18 2 0 0 0 0 0 0 0 0 10 1 0 0 0 0 26 44 96 141 57 41 32 31 29 21 0 0 0 0 0 0 0 0 0 0 0 0 0 0 0 0 0 0 0 0 0 0 0 0 0 0 0 0 0 0 0 0 0 0 0 0 0 0 0 0 0 0 0 0 0 0
0 0 0 0 0 0 0 0 0 1 0 0 0 1 0 0 0 0 0 0 0 4 11 11 14 6 0 0 0 0 0 0 0 0 0 11 4 0 13 9 3 52 71 223 381 174 162 100 35 84 70 0 0 0 0 0 0 0 0 0 0 0 0 0 0 0 0 0 0 0 0 0 0 0 0 0 0 0 0 0 0 0 0 0 0 0 0 0 0 0 0 0 0 0 0 0 0
0 0 0 0 0 0 0 0 0 5 4 2 1 0 0 0 0 0 0 0 1 3 2 2 0 1 0 0 0 0 0 0 0 0 0 2 1 0 3 17 20 85 100 339 497 484 418 342 323 144 312 0 0 0 0 0 0 0 0 0 0 0 0 0 0 0 0 0 0 0 0 0 0 0 0 0 0 0 0 0 0 0 0 0 0 0 0 0 0 0 0 0 0 0 0 0 0
0 0 0 0 0 0 0 0 0 0 0 0 0 0 0 0 0 0 0 2 2 0 0 0 0 0 3 9 9 12 0 0 0 0 0 18 11 0 0 3 21 104 273 385 618 691 601 511 374 389 403 337 98 0 0 0 0 0 0 0 0 0 0 0 0 0 0 0 0 0 0 0 0 0 0 0 0 0 0 0 0 0 0 0 0 0 0 0 0 0 0 0 0 0 0 0 0
94 0 0 0 2 2 3 0 0 0 0 0 0 0 0 0 0 0 0 0 0 0 0 4 1 0 0 0 0 2 0 0 0 0 36 73 122 4 0 0 13 276 336 605 741 815 789 663 503 475 509 447 375 73 0 0 0 0 0 0 0 0 0 0 0 0 0 0 0 0 0 0 0 0 0 0 0 0 0 0 0 0 0 0 0 0 0 0 0 0 0 0 0 0 0 0 0
0 2 0 0 0 2 3 8 8 0 0 0 0 0 0 0 0 0 0 0 0 0 0 1 0 1 0 2 0 0 0 0 1 2 88 143 172 136 14 3 75 283 450 779 853 968 933 840 699 588 617 590 497 373 0 0 0 0 0 0 0 0 0 0 0 0 0 0 0 0 0 0 0 0 0 0 0 0 0 0 0 0 0 0 0 0 0 0 0 0 0 0 0 0 0 0 0
0 3 8 0 6 2 2 2 2 0 0 0 0 0 0 0 0 0 1 17 8 1 4 0 0 0 88 0 0 0 0 0 0 80 186 248 273 211 191 217 269 442 550 862 1025 1077 1057 1004 862 722 691 696 612 461 297 0 0 0 0 0 0 0 0 0 0 0 0 0 0 0 0 0 0 0 0 0 0 0 0 0 0 0 0 0 0 0 0 0 0 0 0 0 0 0 0 0 0
0 4 0 0 0 4 13 5 0 0 0 0 0 0 0 0 0 0 0 2 0 0 0 0 0 0 0 0 0 0 0 0 0 0 259 375 308 289 304 271 497 650 912 984 1151 1173 1168 1088 954 868 822 763 669 523 390 284 0 0 0 0 0 0 0 0 0 0 0 0 0 0 0 0 0 0 0 0 0 0 0 0 0 0 0 0 0 0 0 0 0 0 0 0 0 0 0 0 0
1 23 7 2 5 58 1 0 0 0 3 0 0 0 0 0 0 0 18 4 0 0 0 0 1 18 0 0 0 0 0 0 0 0 100 424 354 398 319 438 575 807 1074 1205 1215 1285 1248 1180 1056 944 887 772 662 582 473 358 138 0 0 0 0 0 0 0 0 0 0 0 0 0 0 0 0 0 0 0 0 0 0 0 0 0 0 0 0 0 0 0 0 0 0 0 0 0 0 0 1
0 7 15 2 1 6 21 0 1 19 0 0 0 0 0 0 0 0 27 0 5 11 0 0 0 2 2 4 0 10 5 0 0 0 0 79 529 514 498 482 602 804 1021 1180 1276 1286 1283 1232 1134 980 904 796 671 622 534 424 301 0 0 0 0 0 0 0 0 0 0 0 0 0 0 0 0 0 0 0 0 0 0 0 0 0 0 0 0 0 0 0 0 0 0 0 0 0 0 0 4
Wind_Speed
nan nan nan nan nan nan nan nan nan nan nan nan nan nan nan nan nan nan nan nan nan nan nan nan nan nan nan 31 39 37 33 32 22 28 nan 25 28 34 35 36 32 31 30 27 25 23 23 26 27 29 27 25 26 27 27 27 27 29 30 29 29 29 29 29 30 30 30 31 32 32 32 32 32 30 28 27 25 25 26 26 25 25 24 23 21 22 22 20 20 21 23 22 24 23 22 20 19
nan nan nan nan nan nan nan nan nan nan nan nan nan nan nan nan nan nan nan nan nan nan nan nan 40 39 nan nan 35 43 41 37 37 33 32 32 33 34 35 36 34 32 28 25 23 23 22 23 28 29 27 26 26 27 27 28 28 29 30 29 28 28 28 29 29 29 29 29 30 31 31 31 31 30 29 28 24 24 24 24 24 24 24 24 22 21 22 20 20 21 22 22 24 23 21 20 19
nan nan nan nan nan nan nan nan nan nan nan nan nan nan nan nan nan nan nan nan nan nan nan nan nan nan nan nan 37 40 35 39 39 36 33 35 35 31 32 34 34 31 29 25 25 25 24 25 28 28 26 26 27 27 27 27 27 29 30 29 28 28 28 29 29 29 29 29 30 30 30 30 30 29 29 29 26 24 25 24 23 23 23 24 23 21 21 20 19 20 22 21 23 23 20 19 18
nan nan nan nan nan nan nan nan nan nan nan nan nan nan nan nan nan nan nan nan nan nan nan nan nan nan nan nan nan 39 35 32 35 36 32 28 29 33 34 35 35 30 27 26 27 26 25 27 28 27 26 26 27 28 28 27 27 29 30 29 28 29 29 29 30 31 30 31 31 31 29 29 29 29 29 30 28 25 25 24 23 22 22 23 22 21 21 20 18 19 21 22 22 22 20 19 18
nan nan nan nan nan nan nan nan nan nan nan nan nan nan nan nan nan nan nan nan nan nan nan nan nan nan nan nan nan nan 33 38 36 35 31 32 34 33 34 34 32 30 28 28 28 27 25 29 27 26 26 26 27 27 27 27 27 28 30 30 29 29 29 29 30 31 31 31 31 31 30 28 28 28 28 29 30 27 25 25 23 22 21 21 21 20 20 18 18 18 20 21 22 21 19 18 17
nan nan nan nan nan nan nan nan nan nan nan nan nan nan nan nan nan nan nan nan nan nan nan nan nan nan nan nan nan nan nan 28 31 33 32 30 35 35 35 33 32 30 30 29 29 27 24 27 27 26 25 26 27 28 28 29 28 30 31 31 31 30 30 29 29 30 30 30 30 29 29 28 28 27 26 28 29 28 27 26 24 22 21 22 21 20 19 19 18 19 22 21 21 21 18 17 16
nan nan nan nan nan nan nan nan nan nan nan nan nan nan nan nan nan nan nan nan nan nan nan nan nan nan nan nan nan nan nan 33 31 31 31 33 35 35 35 33 32 31 30 27 27 27 26 29 28 27 26 28 28 30 30 30 31 31 31 31 31 31 30 30 29 29 29 29 27 26 25 26 28 28 26 25 27 29 30 27 25 23 21 21 20 20 20 19 20 21 22 21 21 20 17 15 14
nan nan nan nan nan nan nan nan nan nan nan nan nan nan nan nan nan nan nan nan nan nan nan nan nan nan nan nan nan nan 39 39 36 35 36 33 35 36 37 34 32 30 29 27 27 25 29 30 30 30 29 29 31 31 31 31 30 29 29 29 29 29 30 29 29 28 28 27 26 25 25 25 27 27 26 26 23 28 29 28 27 24 21 21 21 21 21 21 21 21 21 21 21 18 15 14 12
nan nan nan nan nan nan nan nan nan nan nan nan nan nan nan nan nan nan nan nan nan nan nan nan nan nan nan nan nan nan 34 34 34 37 36 35 35 35 33 34 33 30 30 30 28 27 27 30 31 31 31 32 31 30 31 31 29 26 25 26 26 27 27 27 27 27 27 26 25 27 28 26 25 27 28 27 26 24 28 28 27 25 23 22 22 22 22 22 22 21 20 21 20 17 14 12 11
nan nan nan nan nan nan nan nan nan nan nan nan nan nan nan nan nan nan nan nan nan nan nan nan nan nan nan nan nan nan 30 33 34 36 37 34 33 34 35 36 35 33 31 31 29 28 27 32 31 32 32 33 32 30 28 27 26 23 21 22 22 24 24 24 24 24 25 25 26 27 28 27 27 28 28 27 28 26 27 28 27 26 23 22 22 23 22 22 23 21 20 20 20 17 14 12 11
nan nan nan nan nan nan nan nan nan nan nan nan nan nan nan nan nan nan nan nan nan nan nan nan nan nan nan nan nan nan nan nan 35 35 35 36 35 34 33 34 35 33 33 32 31 28 28 27 32 31 31 31 30 28 25 24 23 20 20 21 21 22 22 23 23 24 25 26 27 28 29 28 27 27 27 27 27 26 26 27 28 25 22 21 24 23 22 22 23 22 21 20 19 17 14 12 12
nan nan nan nan nan nan nan nan nan nan nan nan nan nan nan nan nan nan nan nan nan nan nan nan nan nan nan nan nan nan nan nan nan nan 35 36 35 34 31 31 33 33 35 34 32 29 28 26 24 29 29 29 28 27 25 23 23 21 21 21 22 23 23 24 24 25 25 26 27 28 28 27 27 27 27 26 26 26 25 26 28 24 23 23 23 23 21 21 23 22 21 20 18 18 14 13 12
nan nan nan nan nan nan nan nan nan nan nan nan nan nan nan nan nan nan nan nan nan nan nan nan nan nan nan nan nan nan nan nan nan nan nan 31 31 32 32 32 32 33 34 34 33 31 28 26 24 24 26 30 27 27 26 26 24 23 23 23 24 25 25 26 26 26 26 26 27 27 26 24 25 26 26 26 25 25 25 26 26 22 23 23 22 22 20 20 22 23 21 19 19 17 15 13 14
nan nan nan nan nan nan nan nan nan nan nan nan nan nan nan nan nan nan nan nan nan nan nan nan nan nan nan nan nan nan nan nan nan nan nan nan 34 33 32 31 31 32 33 33 33 31 28 27 25 25 26 25 25 26 28 28 27 26 25 25 26 26 27 28 28 28 27 27 27 26 25 24 24 25 25 25 25 25 27 27 24 21 23 23 21 21 20 19 21 22 21 19 19 17 16 14 14
nan nan nan nan nan nan nan nan nan nan nan nan nan nan nan nan nan nan nan nan nan nan nan nan nan nan nan nan nan nan nan nan nan nan nan nan nan 34 35 32 30 31 33 33 32 30 30 30 28 26 27 27 27 26 25 27 29 28 26 27 27 27 28 28 29 29 28 28 28 27 26 26 24 25 25 25 25 26 27 28 25 21 23 23 21 20 19 19 20 21 21 20 19 17 17 16 15
nan nan nan nan nan nan nan nan nan nan nan nan nan nan nan nan nan nan nan nan nan nan nan nan nan nan nan nan nan nan nan nan nan nan nan nan nan nan nan 34 33 33 31 31 31 30 31 32 29 28 29 29 28 27 27 26 27 28 26 26 26 26 27 27 28 28 27 27 27 27 26 25 24 23 25 24 26 26 27 27 24 21 23 23 21 19 19 18 19 21 22 22 19 18 17 16 15
nan nan nan nan nan nan nan nan nan nan nan nan nan nan nan nan nan nan nan nan nan nan nan nan nan nan nan nan nan nan nan nan nan nan nan nan nan nan nan nan nan nan nan 30 29 30 31 32 31 31 31 29 30 29 28 26 25 26 24 24 24 24 25 25 27 27 26 25 25 25 26 25 23 22 23 23 25 24 25 26 24 22 22 23 21 19 19 18 20 21 23 22 20 17 16 17 16
nan nan nan nan nan nan nan nan nan nan nan nan nan nan nan nan nan nan nan nan nan nan nan nan nan nan nan nan nan nan nan nan nan nan nan nan nan nan nan nan nan nan nan 32 30 29 30 32 33 32 30 29 29 27 25 24 22 23 21 21 20 21 22 23 23 23 23 23 24 24 23 23 22 22 21 23 24 24 24 25 27 25 23 23 22 20 19 19 19 21 22 22 19 19 18 21 19
nan nan nan nan nan nan nan nan nan nan nan nan nan nan nan nan nan nan nan nan nan nan nan nan nan nan nan nan nan nan nan nan nan nan nan nan nan nan nan nan nan nan nan nan nan nan 29 27 28 30 29 27 27 25 23 23 21 20 21 20 20 20 19 20 20 20 21 21 21 22 22 22 22 22 21 23 23 24 25 25 28 28 25 23 23 22 20 20 20 21 22 21 20 20 22 22 22
nan nan nan nan nan nan nan nan nan nan nan nan nan nan nan nan nan nan nan nan nan nan nan nan nan nan nan nan nan nan nan nan nan nan nan nan nan nan nan nan nan nan nan nan nan nan nan 23 24 26 26 25 24 23 23 21 20 19 21 20 20 19 19 20 19 18 19 19 19 21 21 21 24 24 21 20 21 25 26 26 26 27 24 22 23 23 22 22 19 19 21 22 23 25 26 25 23
nan nan nan nan nan nan nan nan nan nan nan nan nan nan nan nan nan nan nan nan nan nan nan nan nan nan nan nan nan nan nan nan nan nan nan nan nan nan nan nan nan nan nan nan nan nan nan nan 24 24 26 25 24 23 22 22 21 21 20 19 19 18 19 18 18 18 19 18 19 19 20 23 27 28 27 26 28 26 27 26 26 25 26 25 24 25 24 22 22 21 24 25 27 27 27 nan nan
nan nan nan nan nan nan nan nan nan nan nan nan nan nan nan nan nan nan nan nan nan nan nan nan nan nan nan nan nan nan nan nan nan nan nan nan nan nan nan nan nan nan nan nan nan nan nan nan nan nan 26 24 23 23 22 22 23 23 20 21 20 19 20 19 21 21 22 23 22 22 24 26 27 28 29 28 27 25 27 28 27 26 26 25 24 23 23 22 21 nan nan nan nan nan nan nan nan
nan nan nan nan nan nan nan nan nan nan nan nan nan nan nan nan nan nan nan nan nan nan nan nan nan nan nan nan nan nan nan nan nan nan nan nan nan nan nan nan nan nan nan nan nan nan nan nan nan nan nan 23 24 24 23 24 23 23 23 21 21 19 19 21 22 21 21 22 21 23 25 24 25 27 27 29 26 25 26 26 24 28 28 26 24 24 22 21 20 nan nan nan nan nan nan nan nan
nan nan nan nan nan nan nan nan nan nan nan nan nan nan nan nan nan nan nan nan nan nan nan nan nan nan nan nan nan nan nan nan nan nan nan nan nan nan nan nan nan nan nan nan nan nan nan nan nan nan nan nan 23 25 23 25 25 25 24 23 21 21 19 22 23 22 21 21 20 21 24 23 24 24 27 30 26 23 24 25 29 30 30 30 27 26 23 21 19 nan nan nan nan nan nan nan nan
nan nan nan nan nan nan nan nan nan nan nan nan nan nan nan nan nan nan nan nan nan nan nan nan nan nan nan nan nan nan nan nan nan nan nan nan nan nan nan nan nan nan nan nan nan nan nan nan nan nan nan nan 26 26 26 27 27 26 26 26 25 24 24 24 24 22 20 20 22 21 22 24 22 22 27 26 23 22 23 26 28 29 32 31 29 28 27 22 20 nan nan nan nan nan nan nan nan
nan nan nan nan nan nan nan nan nan nan nan nan nan nan nan nan nan nan nan nan nan nan nan nan nan nan nan nan nan nan nan nan nan nan nan nan nan nan nan nan nan nan nan nan nan nan nan nan nan nan nan nan nan 28 28 29 29 28 25 25 25 26 27 26 25 24 21 20 22 23 22 22 22 21 22 19 19 21 23 25 27 29 30 30 29 27 31 26 20 nan nan nan nan nan nan nan nan
nan nan nan nan nan nan nan nan nan nan nan nan nan nan nan nan nan nan nan nan nan nan nan nan nan nan nan nan nan nan nan nan nan nan nan nan nan nan nan nan nan nan nan nan nan nan nan nan nan nan nan nan nan nan nan nan 29 29 28 26 26 26 27 27 26 25 23 22 22 24 24 20 20 17 20 19 19 21 23 25 26 29 31 32 32 32 32 32 27 22 nan nan nan nan nan nan nan
nan nan nan nan nan nan nan nan nan nan nan nan nan nan nan nan nan nan nan nan nan nan nan nan nan nan nan nan nan nan nan nan nan nan nan nan nan nan nan nan nan nan nan nan nan nan nan nan nan nan nan nan nan nan nan nan nan nan 28 28 27 26 27 28 27 26 26 25 23 22 25 26 19 15 18 20 20 21 19 21 26 27 27 32 36 35 33 34 32 30 26 24 24 25 28 28 nan
nan nan nan nan nan nan nan nan nan nan nan nan nan nan nan nan nan nan nan nan nan nan nan nan nan nan nan nan nan nan nan nan nan nan nan nan nan nan nan nan nan nan nan nan nan nan nan nan nan nan nan nan nan nan nan nan nan nan nan nan nan nan 27 28 29 27 27 26 25 23 24 28 21 15 16 18 19 18 14 14 21 25 24 26 30 32 35 35 35 34 29 27 26 26 28 29 nan
nan nan nan nan nan nan nan nan nan nan nan nan nan nan nan nan nan nan nan nan nan nan nan nan nan nan nan nan nan nan nan nan nan nan nan nan nan nan nan nan nan nan nan nan nan nan nan nan nan nan nan nan nan nan nan nan nan nan nan nan nan nan nan 30 27 28 28 27 27 26 26 27 25 19 16 18 17 18 15 12 16 23 25 22 24 30 34 35 34 34 31 28 25 25 26 27 27
nan nan nan nan nan nan nan nan nan nan nan nan nan nan nan nan nan nan nan nan nan nan nan nan nan nan nan nan nan nan nan nan nan nan nan nan nan nan nan nan nan nan nan nan nan nan nan nan nan nan nan nan nan nan nan nan nan nan nan nan nan nan nan nan nan nan 27 28 27 28 26 24 24 24 22 19 16 17 18 15 14 20 26 24 21 23 27 30 32 31 30 30 30 nan 25 27 28
nan nan nan nan nan nan nan nan nan nan nan nan nan nan nan nan nan nan nan nan nan nan nan nan nan nan nan nan nan nan nan nan nan nan nan nan nan nan nan nan nan nan nan nan nan nan nan nan nan nan nan nan nan nan nan nan nan nan nan nan nan nan nan nan nan nan nan nan 29 29 27 24 23 24 23 21 17 16 19 18 16 21 26 28 26 20 16 20 28 29 31 30 30 nan 30 28 28
nan nan nan nan nan nan nan nan nan nan nan nan nan nan nan nan nan nan nan nan nan nan nan nan nan nan nan nan nan nan nan nan nan nan nan nan nan nan nan nan nan nan nan nan nan nan nan nan nan nan nan nan nan nan nan nan nan nan nan nan nan nan nan nan nan nan nan nan nan nan nan 27 26 24 22 21 17 17 19 19 16 20 26 29 29 27 19 14 19 24 28 30 31 29 31 nan nan
nan nan nan nan nan nan nan nan nan nan nan nan nan nan nan nan nan nan nan nan nan nan nan nan nan nan nan nan nan nan nan nan nan nan nan nan nan nan nan nan nan nan nan nan nan nan nan nan nan nan nan nan nan nan nan nan nan nan nan nan nan nan nan nan nan nan nan nan nan nan nan nan nan nan 25 22 19 16 18 20 23 19 21 23 25 27 25 20 17 17 22 26 28 31 30 30 32
nan nan nan nan nan nan nan nan nan nan nan nan nan nan nan nan nan nan nan nan nan nan nan nan nan nan nan nan nan nan nan nan nan nan nan nan nan nan nan nan nan nan nan nan nan nan nan nan nan nan nan nan nan nan nan nan nan nan nan nan nan nan nan nan nan nan nan nan nan nan nan nan nan nan nan 26 23 21 20 21 24 19 20 21 23 24 24 25 22 21 20 20 24 27 29 30 31
nan nan nan nan nan nan nan nan nan nan nan nan nan nan nan nan nan nan nan nan nan nan nan nan nan nan nan nan nan nan nan nan nan nan nan nan nan nan nan nan nan nan nan nan nan nan nan nan nan nan nan nan nan nan nan nan nan nan nan nan nan nan nan nan nan nan nan nan nan nan nan nan nan nan nan nan nan nan 24 22 21 21 21 22 24 23 22 24 26 25 25 25 23 24 27 29 31
nan nan nan nan nan nan nan nan nan nan nan nan nan nan nan nan nan nan nan nan nan nan nan nan nan nan nan nan nan nan nan nan nan nan nan nan nan nan nan nan nan nan nan nan nan nan nan nan nan nan nan nan nan nan nan nan nan nan nan nan nan nan nan nan nan nan nan nan nan nan nan nan nan nan nan nan nan nan nan nan 22 21 24 26 29 30 22 19 23 25 29 31 28 25 25 29 32
nan nan nan nan nan nan nan nan nan nan nan nan nan nan nan nan nan nan nan nan nan nan nan nan nan nan nan nan nan nan nan nan nan nan nan nan nan nan nan nan nan nan nan nan nan nan nan nan nan nan nan nan nan nan nan nan nan nan nan nan nan nan nan nan nan nan nan nan nan nan nan nan nan nan nan nan nan nan nan nan nan nan 25 27 32 29 22 21 21 21 26 26 29 29 27 30 31
nan nan nan nan nan nan nan nan nan nan nan nan nan nan nan nan nan nan nan nan nan nan nan nan nan nan nan nan nan nan nan nan nan nan nan nan nan nan nan nan nan nan nan nan nan nan nan nan nan nan nan nan nan nan nan nan nan nan nan nan nan nan nan nan nan nan nan nan nan nan nan nan nan nan nan nan nan nan nan nan nan nan nan 28 31 29 27 25 25 24 23 24 26 30 29 30 31
nan nan nan nan nan nan nan nan nan nan nan nan nan nan nan nan nan nan nan nan nan nan nan nan nan nan nan nan nan nan nan nan nan nan nan nan nan nan nan nan nan nan nan nan nan nan nan nan nan nan nan nan nan nan nan nan nan nan nan nan nan nan nan nan nan nan nan nan nan nan nan nan nan nan nan nan nan nan nan nan nan nan nan nan 30 30 nan nan 27 28 28 25 28 28 31 32 34
nan nan nan nan nan nan nan nan nan nan nan nan nan nan nan nan nan nan nan nan nan nan nan nan nan nan nan nan nan nan nan nan nan nan nan nan nan nan nan nan nan nan nan nan nan nan nan nan nan nan nan nan nan nan nan nan nan nan nan nan nan nan nan nan nan nan nan nan nan nan nan nan nan nan nan nan nan nan nan nan nan nan nan nan nan nan nan nan nan nan 33 33 31 30 30 32 31
nan nan nan nan nan nan nan nan nan nan nan nan nan nan nan nan nan nan nan nan nan nan nan nan nan nan nan nan nan nan nan nan nan nan nan nan nan nan nan nan nan nan nan nan nan nan nan nan nan nan nan nan nan nan nan nan nan nan nan nan nan nan nan nan nan nan nan nan nan nan nan nan nan nan nan nan nan nan nan nan nan nan nan nan nan nan nan nan nan 33 34 35 34 33 34 34 30
nan nan nan nan nan nan nan nan nan nan nan nan nan nan nan nan nan nan nan nan nan nan nan nan nan nan nan nan nan nan nan nan nan nan nan nan nan nan nan nan nan nan nan nan nan nan nan nan nan nan nan nan nan nan nan nan nan nan nan nan nan nan nan nan nan nan nan nan nan nan nan nan nan nan nan nan nan nan nan nan nan nan nan nan nan nan nan nan nan nan nan nan 34 36 37 34 32
nan nan nan nan nan nan nan nan nan nan nan nan nan nan nan nan nan nan nan nan nan nan nan nan nan nan nan nan nan nan nan nan nan nan nan nan nan nan nan nan nan nan nan nan nan nan nan nan nan nan nan nan nan nan nan nan nan nan nan nan nan nan nan nan nan nan nan nan nan nan nan nan nan nan nan nan nan nan nan nan nan nan nan nan nan nan nan nan nan nan nan nan nan nan 37 35 34
nan nan nan nan nan nan nan nan nan nan nan nan nan nan nan nan nan nan nan nan nan nan nan nan nan nan nan nan nan nan nan nan nan nan nan nan nan nan nan nan nan nan nan nan nan nan nan nan nan nan nan nan nan nan nan nan nan nan nan nan nan nan nan nan nan nan nan nan nan nan nan nan nan nan nan nan nan nan nan nan nan nan nan nan nan nan nan nan nan nan nan nan nan nan nan 36 37
nan nan nan nan nan nan nan nan nan nan nan nan nan nan nan nan nan nan nan nan nan nan nan nan nan nan nan nan nan nan nan nan nan nan nan nan nan nan nan nan nan nan nan nan nan nan nan nan nan nan nan nan nan nan nan nan nan nan nan nan nan nan nan nan nan nan nan nan nan nan nan nan nan nan nan nan nan nan nan nan nan nan nan nan nan nan nan nan nan nan nan nan nan nan nan nan 36
nan nan nan nan nan nan nan nan nan nan nan nan nan nan nan nan nan nan nan nan nan nan nan nan nan nan nan nan nan nan nan nan nan nan nan nan nan nan nan nan nan nan nan nan nan nan nan nan nan nan nan nan nan nan nan nan nan nan nan nan nan nan nan nan nan nan nan nan nan nan nan nan nan nan nan nan nan nan nan nan nan nan nan nan nan nan nan nan nan nan nan nan nan nan nan nan nan
nan nan nan nan nan nan nan nan nan nan nan nan nan nan nan nan nan nan nan nan nan nan nan nan nan nan nan nan nan nan nan nan nan nan nan nan nan nan nan nan nan nan nan nan nan nan nan nan nan nan nan nan nan nan nan nan nan nan nan nan nan nan nan nan nan nan nan nan nan nan nan nan nan nan nan nan nan nan nan nan nan nan nan nan nan nan nan nan nan nan nan nan nan nan nan nan nan
nan nan nan nan nan nan nan nan nan nan nan nan nan nan nan nan nan nan nan nan nan nan nan nan nan nan nan nan nan nan nan nan nan nan nan nan nan nan nan nan nan nan nan nan 30 nan nan nan nan nan nan nan nan nan nan nan nan nan nan nan nan nan nan nan nan nan nan nan nan nan nan nan nan nan nan nan nan nan nan nan nan nan nan nan nan nan nan nan nan nan nan nan nan nan nan nan nan
nan nan nan nan nan nan nan nan nan nan nan nan nan nan nan nan nan nan nan nan nan nan nan nan nan nan nan nan nan nan nan nan nan nan nan nan nan nan nan nan nan nan nan 33 32 32 30 29 nan nan nan nan nan nan nan nan nan nan nan nan nan nan nan nan nan nan nan nan nan nan nan nan nan nan nan nan nan nan nan nan nan nan nan nan nan nan nan nan nan nan nan nan nan nan nan nan nan
nan nan nan nan nan nan nan nan nan nan nan nan nan nan nan nan nan nan nan nan nan nan nan nan nan nan nan nan nan nan nan nan nan nan nan nan nan nan nan nan nan nan 35 35 34 34 33 31 29 27 26 nan nan nan nan nan nan nan nan nan nan nan nan nan nan nan nan nan nan nan nan nan nan nan nan nan nan nan nan nan nan nan nan nan nan nan nan nan nan nan nan nan nan nan nan nan nan
nan nan nan nan nan nan nan nan nan nan nan nan nan nan nan nan nan nan nan nan nan nan nan nan nan nan nan nan nan nan nan nan nan nan nan nan nan nan nan nan nan 33 35 35 35 35 34 33 31 29 28 26 nan nan nan nan nan nan nan nan nan nan nan nan nan nan nan nan nan nan nan nan nan nan nan nan nan nan nan nan nan nan nan nan nan nan nan nan nan nan nan nan nan nan nan nan nan
nan nan nan nan nan nan nan nan nan nan nan nan nan nan nan nan nan nan nan nan nan nan nan nan nan nan nan nan nan nan nan nan nan nan nan nan 32 nan nan nan nan 29 31 32 34 34 34 34 32 31 29 28 27 nan nan nan nan nan nan nan nan nan nan nan nan nan nan nan nan nan nan nan nan nan nan nan nan nan nan nan nan nan nan nan nan nan nan nan nan nan nan nan nan nan nan nan nan
nan nan nan nan nan nan nan nan nan nan nan nan nan nan nan nan nan nan nan nan nan nan nan nan nan nan nan nan nan nan nan nan nan nan nan 34 33 32 nan nan nan 27 28 30 32 33 33 32 33 32 32 31 29 28 nan nan nan nan nan nan nan nan nan nan nan nan nan nan nan nan nan nan nan nan nan nan nan nan nan nan nan nan nan nan nan nan nan nan nan nan nan nan nan nan nan nan nan
nan nan nan nan nan nan nan nan nan nan nan nan nan nan nan nan nan nan nan nan nan nan nan nan nan nan nan nan nan nan nan nan nan nan 34 35 31 28 30 29 27 27 28 30 31 32 31 30 31 33 33 32 31 30 31 nan nan nan nan nan nan nan nan nan nan nan nan nan nan nan nan nan nan nan nan nan nan nan nan nan nan nan nan nan nan nan nan nan nan nan nan nan nan nan nan nan nan
nan nan nan nan nan nan nan nan nan nan nan nan nan nan nan nan nan nan nan nan nan nan nan nan nan nan nan nan nan nan nan nan nan nan 33 33 31 29 31 34 33 30 29 29 30 30 31 30 31 31 32 32 33 33 32 34 nan nan nan nan nan nan nan nan nan nan nan nan nan nan nan nan nan nan nan nan nan nan nan nan nan nan nan nan nan nan nan nan nan nan nan nan nan nan nan nan nan
nan nan nan nan nan nan nan nan nan nan nan nan nan nan nan nan nan nan nan nan nan nan nan nan nan nan nan nan nan nan nan nan nan nan 33 31 30 32 35 36 35 33 31 30 30 31 30 30 30 30 31 31 32 31 32 33 35 nan nan nan nan nan nan nan nan nan nan nan nan nan nan nan nan nan nan nan nan nan nan nan nan nan nan nan nan nan nan nan nan nan nan nan nan nan nan nan nan
nan nan nan nan nan nan nan nan nan nan nan nan nan nan nan nan nan nan nan nan nan nan nan nan nan nan nan nan nan nan nan nan nan nan nan nan 34 32 34 35 34 33 32 31 31 33 32 32 31 31 30 29 30 29 30 32 33 nan nan nan nan nan nan nan nan nan nan nan nan nan nan nan nan nan nan nan nan nan nan nan nan nan nan nan nan nan nan nan nan nan nan nan nan nan nan nan nan
Wind_Direction
nan nan nan nan nan nan nan nan nan nan nan nan nan nan nan nan nan nan nan nan nan nan nan nan nan nan nan 265 263 259 252 264 272 282 nan 281 281 281 282 285 285 283 282 283 284 284 285 289 288 289 289 291 292 295 293 291 287 283 284 282 283 283 281 278 277 276 275 274 271 267 265 265 264 263 260 259 261 268 271 273 273 272 271 269 266 266 263 256 251 246 248 250 254 253 248 241 232
nan nan nan nan nan nan nan nan nan nan nan nan nan nan nan nan nan nan nan nan nan nan nan nan 262 267 nan nan 265 261 255 262 265 273 275 282 281 279 285 287 287 285 283 282 282 281 281 286 288 288 289 290 290 294 294 293 289 284 284 284 281 281 280 279 277 276 276 276 274 270 265 264 267 267 265 262 258 260 265 268 271 273 272 268 262 260 260 255 248 245 249 252 258 257 250 242 232
nan nan nan nan nan nan nan nan nan nan nan nan nan nan nan nan nan nan nan nan nan nan nan nan nan nan nan nan 253 264 272 274 275 274 276 284 280 281 286 282 282 283 282 279 278 278 279 283 284 288 289 289 289 292 293 292 289 284 283 282 281 281 280 278 277 277 278 278 276 273 268 264 265 267 266 264 258 256 258 261 264 269 270 267 262 258 258 254 246 242 249 254 259 260 255 246 231
nan nan nan nan nan nan nan nan nan nan nan nan nan nan nan nan nan nan nan nan nan nan nan nan nan nan nan nan nan 259 263 269 277 280 275 274 273 279 276 277 279 278 277 276 277 276 277 283 283 285 287 288 288 290 291 292 287 282 281 282 281 280 278 277 276 276 278 279 279 275 269 266 265 265 265 264 260 255 255 255 257 261 262 263 260 256 253 250 244 240 248 257 260 262 259 251 234
nan nan nan nan nan nan nan nan nan nan nan nan nan nan nan nan nan nan nan nan nan nan nan nan nan nan nan nan nan nan 266 261 259 262 264 266 272 272 274 273 274 277 277 275 274 272 273 281 280 282 284 285 285 285 287 288 285 280 281 282 284 279 277 278 279 279 278 279 281 277 272 269 268 266 265 263 261 258 252 252 252 254 255 253 251 247 245 242 238 236 245 258 264 265 262 255 241
nan nan nan nan nan nan nan nan nan nan nan nan nan nan nan nan nan nan nan nan nan nan nan nan nan nan nan nan nan nan nan 262 275 263 270 270 274 274 271 269 270 269 270 269 270 268 267 274 276 279 281 282 281 282 281 285 282 278 281 282 284 281 275 274 277 282 281 280 284 286 278 273 272 269 266 264 263 259 250 250 249 249 253 253 249 245 242 239 235 232 243 253 261 265 263 256 243
nan nan nan nan nan nan nan nan nan nan nan nan nan nan nan nan nan nan nan nan nan nan nan nan nan nan nan nan nan nan nan 275 269 272 272 278 277 273 268 266 265 265 267 266 266 265 268 270 271 273 275 277 278 279 280 281 282 280 282 283 283 281 277 274 275 280 282 281 284 287 285 277 273 271 269 264 266 262 251 247 247 244 247 250 249 246 242 239 235 235 245 255 257 260 260 255 242
nan nan nan nan nan nan nan nan nan nan nan nan nan nan nan nan nan nan nan nan nan nan nan nan nan nan nan nan nan nan 260 268 278 281 279 276 273 268 268 267 265 265 265 263 263 265 272 268 269 268 269 275 279 281 283 283 284 284 286 284 281 280 278 277 276 277 279 282 283 283 285 282 276 272 270 269 265 261 252 248 244 242 244 249 247 245 242 240 239 239 245 253 255 256 257 255 242
nan nan nan nan nan nan nan nan nan nan nan nan nan nan nan nan nan nan nan nan nan nan nan nan nan nan nan nan nan nan 262 266 276 284 281 276 271 269 266 267 268 266 266 263 262 261 261 266 266 266 268 269 271 279 284 287 289 289 289 283 280 279 279 279 280 280 281 281 279 281 283 281 276 270 269 265 268 258 252 250 243 240 239 243 246 246 245 240 240 240 243 248 254 256 254 252 240
nan nan nan nan nan nan nan nan nan nan nan nan nan nan nan nan nan nan nan nan nan nan nan nan nan nan nan nan nan nan 272 270 265 260 271 273 271 269 267 264 265 268 266 265 264 265 265 270 265 266 267 271 273 273 276 286 289 288 287 281 281 281 280 280 279 281 281 281 278 279 279 275 271 272 272 269 267 261 252 248 243 241 239 244 248 247 243 240 239 240 241 245 250 255 253 245 234
nan nan nan nan nan nan nan nan nan nan nan nan nan nan nan nan nan nan nan nan nan nan nan nan nan nan nan nan nan nan nan nan 266 264 261 265 268 264 261 262 263 268 272 270 269 268 267 268 270 267 269 272 273 274 272 273 282 281 279 279 283 283 281 279 280 279 279 281 280 282 278 273 272 272 273 268 266 260 249 244 244 244 239 241 246 246 243 241 240 239 237 241 248 247 244 239 227
nan nan nan nan nan nan nan nan nan nan nan nan nan nan nan nan nan nan nan nan nan nan nan nan nan nan nan nan nan nan nan nan nan nan 265 265 262 262 261 261 263 269 274 275 274 271 273 271 267 271 269 271 272 272 273 274 277 282 281 280 282 283 281 282 280 281 280 279 281 281 279 273 271 271 270 267 264 257 244 242 244 246 246 243 244 244 243 241 238 236 236 241 245 245 240 234 226
nan nan nan nan nan nan nan nan nan nan nan nan nan nan nan nan nan nan nan nan nan nan nan nan nan nan nan nan nan nan nan nan nan nan nan 256 257 261 265 265 267 270 274 277 277 277 277 272 269 266 270 271 268 270 273 274 274 277 280 277 279 280 281 282 281 281 282 281 283 283 279 273 272 270 269 265 263 255 244 240 242 249 254 247 244 243 243 241 237 237 238 242 244 243 242 233 224
nan nan nan nan nan nan nan nan nan nan nan nan nan nan nan nan nan nan nan nan nan nan nan nan nan nan nan nan nan nan nan nan nan nan nan nan 253 252 256 265 271 273 275 276 278 281 279 276 271 272 271 270 270 269 271 274 274 277 280 277 277 279 281 281 280 280 280 280 281 282 277 273 276 273 267 263 260 254 245 240 242 254 259 252 245 244 243 242 239 239 237 239 243 242 242 234 225
nan nan nan nan nan nan nan nan nan nan nan nan nan nan nan nan nan nan nan nan nan nan nan nan nan nan nan nan nan nan nan nan nan nan nan nan nan 251 253 254 255 262 269 274 278 281 279 276 275 276 274 276 276 273 272 272 275 276 282 283 280 279 279 280 279 279 281 281 281 279 274 271 276 276 268 261 256 254 250 244 243 253 261 258 250 245 243 241 239 239 238 237 238 241 242 235 226
nan nan nan nan nan nan nan nan nan nan nan nan nan nan nan nan nan nan nan nan nan nan nan nan nan nan nan nan nan nan nan nan nan nan nan nan nan nan nan 250 253 255 259 269 273 276 278 279 279 276 276 278 278 279 277 276 278 279 284 288 285 279 278 277 278 278 281 280 279 275 269 265 269 271 271 258 257 255 253 246 245 251 261 261 255 249 245 242 241 239 237 234 233 237 240 237 229
nan nan nan nan nan nan nan nan nan nan nan nan nan nan nan nan nan nan nan nan nan nan nan nan nan nan nan nan nan nan nan nan nan nan nan nan nan nan nan nan nan nan nan 259 266 272 277 280 280 277 278 276 277 276 278 279 281 283 278 282 285 283 278 278 277 278 277 279 276 270 266 260 259 261 259 252 258 249 253 253 247 251 258 258 256 252 248 243 241 238 234 233 229 229 235 239 232
nan nan nan nan nan nan nan nan nan nan nan nan nan nan nan nan nan nan nan nan nan nan nan nan nan nan nan nan nan nan nan nan nan nan nan nan nan nan nan nan nan nan nan 258 262 270 273 278 280 280 280 278 277 276 276 277 280 280 277 275 275 277 275 275 273 270 277 270 274 268 261 258 258 258 258 258 249 248 249 253 250 250 253 257 253 247 245 240 239 237 233 229 226 225 228 225 224
nan nan nan nan nan nan nan nan nan nan nan nan nan nan nan nan nan nan nan nan nan nan nan nan nan nan nan nan nan nan nan nan nan nan nan nan nan nan nan nan nan nan nan nan nan nan 274 279 280 282 280 280 279 277 277 278 281 281 281 280 276 280 282 279 272 272 271 271 267 265 260 255 256 255 254 252 247 251 246 250 251 251 248 252 251 246 242 235 235 234 230 226 222 223 221 224 222
nan nan nan nan nan nan nan nan nan nan nan nan nan nan nan nan nan nan nan nan nan nan nan nan nan nan nan nan nan nan nan nan nan nan nan nan nan nan nan nan nan nan nan nan nan nan nan 275 282 280 281 279 278 278 278 279 281 279 281 280 278 276 270 274 275 271 274 275 274 266 260 256 251 251 258 262 253 241 242 246 251 251 249 248 250 239 239 232 234 233 232 223 220 218 220 218 221
nan nan nan nan nan nan nan nan nan nan nan nan nan nan nan nan nan nan nan nan nan nan nan nan nan nan nan nan nan nan nan nan nan nan nan nan nan nan nan nan nan nan nan nan nan nan nan nan 267 277 279 278 279 280 281 284 282 282 281 282 280 277 274 269 268 267 265 269 279 276 269 257 254 252 246 245 241 236 238 239 242 238 232 229 238 232 233 229 228 222 219 220 218 218 221 nan nan
nan nan nan nan nan nan nan nan nan nan nan nan nan nan nan nan nan nan nan nan nan nan nan nan nan nan nan nan nan nan nan nan nan nan nan nan nan nan nan nan nan nan nan nan nan nan nan nan nan nan 272 279 279 280 282 285 285 284 285 284 280 279 277 272 266 260 261 261 265 265 263 259 256 254 252 247 245 243 238 232 235 238 228 225 228 232 233 231 226 nan nan nan nan nan nan nan nan
nan nan nan nan nan nan nan nan nan nan nan nan nan nan nan nan nan nan nan nan nan nan nan nan nan nan nan nan nan nan nan nan nan nan nan nan nan nan nan nan nan nan nan nan nan nan nan nan nan nan nan 270 283 280 281 282 284 284 283 283 282 284 280 277 270 267 267 270 267 263 260 257 254 254 255 252 248 243 241 239 235 233 228 218 218 228 230 232 228 nan nan nan nan nan nan nan nan
nan nan nan nan nan nan nan nan nan nan nan nan nan nan nan nan nan nan nan nan nan nan nan nan nan nan nan nan nan nan nan nan nan nan nan nan nan nan nan nan nan nan nan nan nan nan nan nan nan nan nan nan 273 282 282 283 282 282 285 286 287 290 286 280 276 273 274 275 275 273 272 272 264 259 254 250 248 244 243 239 232 231 228 217 210 217 228 226 226 nan nan nan nan nan nan nan nan
nan nan nan nan nan nan nan nan nan nan nan nan nan nan nan nan nan nan nan nan nan nan nan nan nan nan nan nan nan nan nan nan nan nan nan nan nan nan nan nan nan nan nan nan nan nan nan nan nan nan nan nan 267 277 278 279 279 282 286 289 289 292 284 282 281 279 277 280 282 277 274 270 263 255 251 244 245 247 246 241 241 236 235 229 216 212 220 223 223 nan nan nan nan nan nan nan nan
nan nan nan nan nan nan nan nan nan nan nan nan nan nan nan nan nan nan nan nan nan nan nan nan nan nan nan nan nan nan nan nan nan nan nan nan nan nan nan nan nan nan nan nan nan nan nan nan nan nan nan nan nan 273 279 280 281 279 278 279 285 285 285 285 284 283 283 282 281 278 271 272 274 270 269 267 258 255 256 251 247 240 237 236 233 221 219 217 220 nan nan nan nan nan nan nan nan
nan nan nan nan nan nan nan nan nan nan nan nan nan nan nan nan nan nan nan nan nan nan nan nan nan nan nan nan nan nan nan nan nan nan nan nan nan nan nan nan nan nan nan nan nan nan nan nan nan nan nan nan nan nan nan nan 281 284 285 287 284 286 287 288 287 287 285 281 277 275 282 279 273 275 276 277 269 269 262 253 245 239 237 236 229 227 222 218 210 218 nan nan nan nan nan nan nan
nan nan nan nan nan nan nan nan nan nan nan nan nan nan nan nan nan nan nan nan nan nan nan nan nan nan nan nan nan nan nan nan nan nan nan nan nan nan nan nan nan nan nan nan nan nan nan nan nan nan nan nan nan nan nan nan nan nan 281 283 285 283 281 282 282 282 283 279 273 275 277 279 281 274 267 273 277 278 261 250 243 237 240 238 229 225 220 218 214 210 211 222 224 222 223 221 nan
nan nan nan nan nan nan nan nan nan nan nan nan nan nan nan nan nan nan nan nan nan nan nan nan nan nan nan nan nan nan nan nan nan nan nan nan nan nan nan nan nan nan nan nan nan nan nan nan nan nan nan nan nan nan nan nan nan nan nan nan nan nan 281 278 281 282 280 282 282 281 278 280 279 268 269 278 286 283 262 247 240 236 241 237 227 228 221 216 214 213 208 211 216 217 222 222 nan
nan nan nan nan nan nan nan nan nan nan nan nan nan nan nan nan nan nan nan nan nan nan nan nan nan nan nan nan nan nan nan nan nan nan nan nan nan nan nan nan nan nan nan nan nan nan nan nan nan nan nan nan nan nan nan nan nan nan nan nan nan nan nan 282 281 281 283 282 283 286 281 284 290 286 278 281 290 284 270 255 239 231 236 239 229 226 222 218 215 214 209 209 213 218 218 224 228
nan nan nan nan nan nan nan nan nan nan nan nan nan nan nan nan nan nan nan nan nan nan nan nan nan nan nan nan nan nan nan nan nan nan nan nan nan nan nan nan nan nan nan nan nan nan nan nan nan nan nan nan nan nan nan nan nan nan nan nan nan nan nan nan nan nan 272 282 284 282 283 284 288 288 287 283 283 279 274 265 249 235 235 240 236 226 223 217 220 216 212 209 210 nan 222 222 228
nan nan nan nan nan nan nan nan nan nan nan nan nan nan nan nan nan nan nan nan nan nan nan nan nan nan nan nan nan nan nan nan nan nan nan nan nan nan nan nan nan nan nan nan nan nan nan nan nan nan nan nan nan nan nan nan nan nan nan nan nan nan nan nan nan nan nan nan 272 276 280 278 276 277 280 284 285 284 279 273 260 243 237 240 248 250 234 217 219 216 217 217 211 nan 216 218 225
nan nan nan nan nan nan nan nan nan nan nan nan nan nan nan nan nan nan nan nan nan nan nan nan nan nan nan nan nan nan nan nan nan nan nan nan nan nan nan nan nan nan nan nan nan nan nan nan nan nan nan nan nan nan nan nan nan nan nan nan nan nan nan nan nan nan nan nan nan nan nan 268 270 273 273 275 279 282 280 278 267 250 241 244 253 254 253 240 226 218 215 222 223 215 213 nan nan
nan nan nan nan nan nan nan nan nan nan nan nan nan nan nan nan nan nan nan nan nan nan nan nan nan nan nan nan nan nan nan nan nan nan nan nan nan nan nan nan nan nan nan nan nan nan nan nan nan nan nan nan nan nan nan nan nan nan nan nan nan nan nan nan nan nan nan nan nan nan nan nan nan nan 271 274 265 262 264 266 265 257 251 251 257 253 250 254 253 239 224 220 220 220 216 215 219
nan nan nan nan nan nan nan nan nan nan nan nan nan nan nan nan nan nan nan nan nan nan nan nan nan nan nan nan nan nan nan nan nan nan nan nan nan nan nan nan nan nan nan nan nan nan nan nan nan nan nan nan nan nan nan nan nan nan nan nan nan nan nan nan nan nan nan nan nan nan nan nan nan nan nan 263 265 255 251 255 266 270 268 269 262 257 253 250 255 251 250 231 224 222 218 218 221
nan nan nan nan nan nan nan nan nan nan nan nan nan nan nan nan nan nan nan nan nan nan nan nan nan nan nan nan nan nan nan nan nan nan nan nan nan nan nan nan nan nan nan nan nan nan nan nan nan nan nan nan nan nan nan nan nan nan nan nan nan nan nan nan nan nan nan nan nan nan nan nan nan nan nan nan nan nan 259 258 259 263 265 267 266 255 242 241 245 247 244 243 234 224 220 221 226
nan nan nan nan nan nan nan nan nan nan nan nan nan nan nan nan nan nan nan nan nan nan nan nan nan nan nan nan nan nan nan nan nan nan nan nan nan nan nan nan nan nan nan nan nan nan nan nan nan nan nan nan nan nan nan nan nan nan nan nan nan nan nan nan nan nan nan nan nan nan nan nan nan nan nan nan nan nan nan nan 253 254 256 259 260 257 246 242 238 240 243 242 243 240 230 224 224
nan nan nan nan nan nan nan nan nan nan nan nan nan nan nan nan nan nan nan nan nan nan nan nan nan nan nan nan nan nan nan nan nan nan nan nan nan nan nan nan nan nan nan nan nan nan nan nan nan nan nan nan nan nan nan nan nan nan nan nan nan nan nan nan nan nan nan nan nan nan nan nan nan nan nan nan nan nan nan nan nan nan 254 254 259 267 266 253 255 247 246 242 247 246 242 241 234
nan nan nan nan nan nan nan nan nan nan nan nan nan nan nan nan nan nan nan nan nan nan nan nan nan nan nan nan nan nan nan nan nan nan nan nan nan nan nan nan nan nan nan nan nan nan nan nan nan nan nan nan nan nan nan nan nan nan nan nan nan nan nan nan nan nan nan nan nan nan nan nan nan nan nan nan nan nan nan nan nan nan nan 254 259 261 262 262 261 264 258 253 247 248 250 250 247
nan nan nan nan nan nan nan nan nan nan nan nan nan nan nan nan nan nan nan nan nan nan nan nan nan nan nan nan nan nan nan nan nan nan nan nan nan nan nan nan nan nan nan nan nan nan nan nan nan nan nan nan nan nan nan nan nan nan nan nan nan nan nan nan nan nan nan nan nan nan nan nan nan nan nan nan nan nan nan nan nan nan nan nan 257 258 nan nan 258 260 263 257 252 246 249 250 254
nan nan nan nan nan nan nan nan nan nan nan nan nan nan nan nan nan nan nan nan nan nan nan nan nan nan nan nan nan nan nan nan nan nan nan nan nan nan nan nan nan nan nan nan nan nan nan nan nan nan nan nan nan nan nan nan nan nan nan nan nan nan nan nan nan nan nan nan nan nan nan nan nan nan nan nan nan nan nan nan nan nan nan nan nan nan nan nan nan nan 260 260 260 256 249 252 252
nan nan nan nan nan nan nan nan nan nan nan nan nan nan nan nan nan nan nan nan nan nan nan nan nan nan nan nan nan nan nan nan nan nan nan nan nan nan nan nan nan nan nan nan nan nan nan nan nan nan nan nan nan nan nan nan nan nan nan nan nan nan nan nan nan nan nan nan nan nan nan nan nan nan nan nan nan nan nan nan nan nan nan nan nan nan nan nan nan 247 253 260 261 260 258 256 254
nan nan nan nan nan nan nan nan nan nan nan nan nan nan nan nan nan nan nan nan nan nan nan nan nan nan nan nan nan nan nan nan nan nan nan nan nan nan nan nan nan nan nan nan nan nan nan nan nan nan nan nan nan nan nan nan nan nan nan nan nan nan nan nan nan nan nan nan nan nan nan nan nan nan nan nan nan nan nan nan nan nan nan nan nan nan nan nan nan nan nan nan 258 261 261 260 259
nan nan nan nan nan nan nan nan nan nan nan nan nan nan nan nan nan nan nan nan nan nan nan nan nan nan nan nan nan nan nan nan nan nan nan nan nan nan nan nan nan nan nan nan nan nan nan nan nan nan nan nan nan nan nan nan nan nan nan nan nan nan nan nan nan nan nan nan nan nan nan nan nan nan nan nan nan nan nan nan nan nan nan nan nan nan nan nan nan nan nan nan nan nan 259 261 257
nan nan nan nan nan nan nan nan nan nan nan nan nan nan nan nan nan nan nan nan nan nan nan nan nan nan nan nan nan nan nan nan nan nan nan nan nan nan nan nan nan nan nan nan nan nan nan nan nan nan nan nan nan nan nan nan nan nan nan nan nan nan nan nan nan nan nan nan nan nan nan nan nan nan nan nan nan nan nan nan nan nan nan nan nan nan nan nan nan nan nan nan nan nan nan 256 255
nan nan nan nan nan nan nan nan nan nan nan nan nan nan nan nan nan nan nan nan nan nan nan nan nan nan nan nan nan nan nan nan nan nan nan nan nan nan nan nan nan nan nan nan nan nan nan nan nan nan nan nan nan nan nan nan nan nan nan nan nan nan nan nan nan nan nan nan nan nan nan nan nan nan nan nan nan nan nan nan nan nan nan nan nan nan nan nan nan nan nan nan nan nan nan nan 256
nan nan nan nan nan nan nan nan nan nan nan nan nan nan nan nan nan nan nan nan nan nan nan nan nan nan nan nan nan nan nan nan nan nan nan nan nan nan nan nan nan nan nan nan nan nan nan nan nan nan nan nan nan nan nan nan nan nan nan nan nan nan nan nan nan nan nan nan nan nan nan nan nan nan nan nan nan nan nan nan nan nan nan nan nan nan nan nan nan nan nan nan nan nan nan nan nan
nan nan nan nan nan nan nan nan nan nan nan nan nan nan nan nan nan nan nan nan nan nan nan nan nan nan nan nan nan nan nan nan nan nan nan nan nan nan nan nan nan nan nan nan nan nan nan nan nan nan nan nan nan nan nan nan nan nan nan nan nan nan nan nan nan nan nan nan nan nan nan nan nan nan nan nan nan nan nan nan nan nan nan nan nan nan nan nan nan nan nan nan nan nan nan nan nan
nan nan nan nan nan nan nan nan nan nan nan nan nan nan nan nan nan nan nan nan nan nan nan nan nan nan nan nan nan nan nan nan nan nan nan nan nan nan nan nan nan nan nan nan 297 nan nan nan nan nan nan nan nan nan nan nan nan nan nan nan nan nan nan nan nan nan nan nan nan nan nan nan nan nan nan nan nan nan nan nan nan nan nan nan nan nan nan nan nan nan nan nan nan nan nan nan nan
nan nan nan nan nan nan nan nan nan nan nan nan nan nan nan nan nan nan nan nan nan nan nan nan nan nan nan nan nan nan nan nan nan nan nan nan nan nan nan nan nan nan nan 299 297 296 293 293 nan nan nan nan nan nan nan nan nan nan nan nan nan nan nan nan nan nan nan nan nan nan nan nan nan nan nan nan nan nan nan nan nan nan nan nan nan nan nan nan nan nan nan nan nan nan nan nan nan
nan nan nan nan nan nan nan nan nan nan nan nan nan nan nan nan nan nan nan nan nan nan nan nan nan nan nan nan nan nan nan nan nan nan nan nan nan nan nan nan nan nan 299 296 295 294 294 292 293 296 293 nan nan nan nan nan nan nan nan nan nan nan nan nan nan nan nan nan nan nan nan nan nan nan nan nan nan nan nan nan nan nan nan nan nan nan nan nan nan nan nan nan nan nan nan nan nan
nan nan nan nan nan nan nan nan nan nan nan nan nan nan nan nan nan nan nan nan nan nan nan nan nan nan nan nan nan nan nan nan nan nan nan nan nan nan nan nan nan 296 296 294 293 293 293 296 295 295 297 292 nan nan nan nan nan nan nan nan nan nan nan nan nan nan nan nan nan nan nan nan nan nan nan nan nan nan nan nan nan nan nan nan nan nan nan nan nan nan nan nan nan nan nan nan nan
nan nan nan nan nan nan nan nan nan nan nan nan nan nan nan nan nan nan nan nan nan nan nan nan nan nan nan nan nan nan nan nan nan nan nan nan 300 nan nan nan nan 297 296 295 295 293 297 295 295 293 291 288 289 nan nan nan nan nan nan nan nan nan nan nan nan nan nan nan nan nan nan nan nan nan nan nan nan nan nan nan nan nan nan nan nan nan nan nan nan nan nan nan nan nan nan nan nan
nan nan nan nan nan nan nan nan nan nan nan nan nan nan nan nan nan nan nan nan nan nan nan nan nan nan nan nan nan nan nan nan nan nan nan 299 304 302 nan nan nan 308 304 300 297 295 293 294 295 294 289 291 288 289 nan nan nan nan nan nan nan nan nan nan nan nan nan nan nan nan nan nan nan nan nan nan nan nan nan nan nan nan nan nan nan nan nan nan nan nan nan nan nan nan nan nan nan
nan nan nan nan nan nan nan nan nan nan nan nan nan nan nan nan nan nan nan nan nan nan nan nan nan nan nan nan nan nan nan nan nan nan 286 293 294 297 298 305 306 307 307 302 299 296 293 290 291 293 294 294 293 291 287 nan nan nan nan nan nan nan nan nan nan nan nan nan nan nan nan nan nan nan nan nan nan nan nan nan nan nan nan nan nan nan nan nan nan nan nan nan nan nan nan nan nan
nan nan nan nan nan nan nan nan nan nan nan nan nan nan nan nan nan nan nan nan nan nan nan nan nan nan nan nan nan nan nan nan nan nan 282 291 296 295 298 300 301 301 300 299 298 296 298 297 295 293 292 288 288 288 288 288 nan nan nan nan nan nan nan nan nan nan nan nan nan nan nan nan nan nan nan nan nan nan nan nan nan nan nan nan nan nan nan nan nan nan nan nan nan nan nan nan nan
nan nan nan nan nan nan nan nan nan nan nan nan nan nan nan nan nan nan nan nan nan nan nan nan nan nan nan nan nan nan nan nan nan nan 277 283 284 290 294 296 297 298 298 298 299 303 305 301 299 297 297 292 294 294 292 290 286 nan nan nan nan nan nan nan nan nan nan nan nan nan nan nan nan nan nan nan nan nan nan nan nan nan nan nan nan nan nan nan nan nan nan nan nan nan nan nan nan
nan nan nan nan nan nan nan nan nan nan nan nan nan nan nan nan nan nan nan nan nan nan nan nan nan nan nan nan nan nan nan nan nan nan nan nan 284 284 290 291 291 293 298 301 300 299 298 299 299 296 295 294 295 295 295 291 289 nan nan nan nan nan nan nan nan nan nan nan nan nan nan nan nan nan nan nan nan nan nan nan nan nan nan nan nan nan nan nan nan nan nan nan nan nan nan nan nan